| time (UTC) | temp F | wind direction | speed MPH | gust MPH | rain 1hr in | rain 24hr in | rain mn in | humidity % | barometer mb |
| 20260906093441 | 72 | 40 | 2.0 | 3.0 | 0.00 | 0.00 | 0.00 | 99 | 1010.8 |
| 20260906092936 | 71 | 60 | 0.0 | 2.0 | 0.00 | 0.00 | 0.00 | 99 | 1010.8 |
| 20260906092436 | 71 | 74 | 0.0 | 2.0 | 0.00 | 0.00 | 0.00 | 99 | 1011.0 |
| 20260906091931 | 71 | 90 | 0.0 | 2.0 | 0.00 | 0.00 | 0.00 | 99 | 1010.8 |
| 20260906091427 | 71 | 66 | 0.0 | 2.0 | 0.00 | 0.00 | 0.00 | 99 | 1010.9 |
| 20260906090923 | 71 | 66 | 2.0 | 2.0 | 0.00 | 0.00 | 0.00 | 99 | 1010.8 |
| 20260906090418 | 71 | 65 | 2.0 | 3.0 | 0.00 | 0.00 | 0.00 | 99 | 1011.0 |
| 20260906085912 | 71 | 81 | 0.0 | 0.0 | 0.00 | 0.00 | 0.00 | 99 | 1010.8 |
| 20260906085406 | 71 | 75 | 1.0 | 1.0 | 0.00 | 0.00 | 0.00 | 99 | 1010.6 |
| 20260906084906 | 71 | 90 | 0.0 | 2.0 | 0.00 | 0.00 | 0.00 | 99 | 1010.9 |
| 20260906084400 | 71 | 60 | 0.0 | 1.0 | 0.00 | 0.00 | 0.00 | 99 | 1010.8 |
| 20260906083854 | 71 | 66 | 0.0 | 2.0 | 0.00 | 0.00 | 0.00 | 99 | 1010.8 |
| 20260906083350 | 71 | 74 | 1.0 | 1.0 | 0.00 | 0.00 | 0.00 | 99 | 1010.8 |
| 20260906082849 | 72 | 81 | 0.0 | 0.0 | 0.00 | 0.00 | 0.00 | 99 | 1010.8 |
| 20260906082344 | 72 | 74 | 0.0 | 2.0 | 0.00 | 0.00 | 0.00 | 99 | 1010.8 |
| 20260906081841 | 72 | 71 | 1.0 | 3.0 | 0.00 | 0.00 | 0.00 | 99 | 1010.5 |
| 20260906081336 | 72 | 49 | 0.0 | 2.0 | 0.00 | 0.00 | 0.00 | 99 | 1010.7 |
| 20260906080832 | 71 | 90 | 0.0 | 1.0 | 0.00 | 0.00 | 0.00 | 99 | 1010.8 |
| 20260906080328 | 72 | 90 | 1.0 | 1.0 | 0.00 | 0.00 | 0.00 | 99 | 1010.8 |
| 20260906075827 | 71 | 90 | 0.0 | 0.0 | 0.00 | 0.00 | 0.00 | 99 | 1010.6 |
| 20260906075322 | 71 | 90 | 0.0 | 0.0 | 0.00 | 0.00 | 0.00 | 99 | 1010.8 |
| 20260906074817 | 71 | 90 | 0.0 | 1.0 | 0.00 | 0.00 | 0.00 | 99 | 1010.5 |
| 20260906074317 | 71 | 151 | 0.0 | 1.0 | 0.00 | 0.00 | 0.00 | 99 | 1010.7 |
| 20260906073816 | 71 | 32 | 2.0 | 2.0 | 0.00 | 0.00 | 0.00 | 99 | 1010.8 |
| 20260906073311 | 72 | 90 | 0.0 | 1.0 | 0.00 | 0.00 | 0.00 | 99 | 1010.6 |
| 20260906072808 | 72 | 74 | 1.0 | 1.0 | 0.00 | 0.00 | 0.00 | 99 | 1010.7 |
| 20260906072305 | 72 | 15 | 0.0 | 2.0 | 0.00 | 0.00 | 0.00 | 99 | 1010.8 |
| 20260906071758 | 72 | 74 | 0.0 | 2.0 | 0.00 | 0.00 | 0.00 | 98 | 1010.7 |
| 20260906071258 | 72 | 81 | 0.0 | 2.0 | 0.00 | 0.00 | 0.00 | 98 | 1010.9 |
| 20260906070755 | 72 | 15 | 0.0 | 1.0 | 0.00 | 0.00 | 0.00 | 98 | 1010.7 |
| 20260906070250 | 72 | 14 | 0.0 | 2.0 | 0.00 | 0.00 | 0.00 | 98 | 1010.9 |
| 20260906065750 | 73 | 81 | 0.0 | 0.0 | 0.00 | 0.00 | 0.00 | 98 | 1011.0 |
| 20260906065245 | 73 | 81 | 0.0 | 0.0 | 0.00 | 0.00 | 0.00 | 97 | 1011.0 |
| 20260906064741 | 73 | 186 | 0.0 | 2.0 | 0.00 | 0.00 | 0.00 | 97 | 1011.0 |
| 20260906064237 | 73 | 74 | 0.0 | 0.0 | 0.00 | 0.00 | 0.00 | 97 | 1010.9 |
| 20260906063731 | 73 | 23 | 0.0 | 1.0 | 0.00 | 0.00 | 0.00 | 97 | 1011.0 |
| 20260906063227 | 73 | 66 | 0.0 | 2.0 | 0.00 | 0.00 | 0.00 | 97 | 1010.8 |
| 20260906062722 | 73 | 90 | 0.0 | 0.0 | 0.00 | 0.00 | 0.00 | 97 | 1010.9 |
| 20260906062221 | 74 | 74 | 0.0 | 1.0 | 0.00 | 0.00 | 0.00 | 97 | 1011.4 |
| 20260906061717 | 73 | 160 | 0.0 | 1.0 | 0.00 | 0.00 | 0.00 | 96 | 1011.1 |
| 20260906061214 | 73 | 20 | 0.0 | 2.0 | 0.00 | 0.00 | 0.00 | 96 | 1010.9 |
| 20260906060709 | 73 | 75 | 0.0 | 2.0 | 0.00 | 0.00 | 0.00 | 96 | 1011.3 |
| 20260906060206 | 73 | 28 | 2.0 | 3.0 | 0.00 | 0.00 | 0.00 | 97 | 1011.0 |
| 20260906055701 | 74 | 21 | 2.0 | 2.0 | 0.00 | 0.00 | 0.00 | 96 | 1011.3 |
| 20260906055156 | 73 | 201 | 2.0 | 2.0 | 0.00 | 0.00 | 0.00 | 97 | 1011.0 |
| 20260906054652 | 73 | 188 | 0.0 | 0.0 | 0.00 | 0.00 | 0.00 | 97 | 1011.3 |
| 20260906054146 | 74 | 99 | 0.0 | 1.0 | 0.00 | 0.00 | 0.00 | 98 | 1011.3 |
| 20260906053643 | 73 | 180 | 0.0 | 0.0 | 0.00 | 0.00 | 0.00 | 97 | 1011.1 |
| 20260906053138 | 74 | 180 | 0.0 | 0.0 | 0.00 | 0.00 | 0.00 | 97 | 1011.1 |
| 20260906052633 | 74 | 180 | 0.0 | 0.0 | 0.00 | 0.00 | 0.00 | 97 | 1011.1 |
| 20260906052130 | 73 | 180 | 0.0 | 2.0 | 0.00 | 0.00 | 0.00 | 97 | 1010.8 |
| 20260906051626 | 73 | 157 | 1.0 | 1.0 | 0.00 | 0.00 | 0.00 | 97 | 1011.0 |
| 20260906051120 | 73 | 172 | 0.0 | 0.0 | 0.00 | 0.00 | 0.00 | 97 | 1011.0 |
| 20260906050616 | 74 | 60 | 0.0 | 0.0 | 0.00 | 0.00 | 0.00 | 98 | 1011.3 |
| 20260906050111 | 74 | 29 | 1.0 | 2.0 | 0.00 | 0.00 | 0.00 | 98 | 1010.9 |
| 20260906045609 | 74 | 14 | 0.0 | 0.0 | 0.00 | 0.00 | 0.00 | 98 | 1011.1 |
| 20260906045105 | 74 | 63 | 0.0 | 2.0 | 0.00 | 0.00 | 0.00 | 98 | 1010.7 |
| 20260906044600 | 74 | 23 | 1.0 | 1.0 | 0.00 | 0.00 | 0.00 | 98 | 1010.6 |
| 20260906044055 | 74 | 74 | 0.0 | 2.0 | 0.00 | 0.00 | 0.00 | 98 | 1010.7 |
| 20260906043551 | 74 | 90 | 0.0 | 0.0 | 0.00 | 0.00 | 0.00 | 98 | 1010.6 |
| 20260906043047 | 75 | 66 | 0.0 | 1.0 | 0.00 | 0.00 | 0.00 | 99 | 1011.0 |
| 20260906042545 | 75 | 60 | 0.0 | 0.0 | 0.00 | 0.00 | 0.00 | 98 | 1010.7 |
| 20260906042040 | 75 | 74 | 0.0 | 1.0 | 0.00 | 0.00 | 0.00 | 98 | 1010.5 |
| 20260906041537 | 75 | 90 | 0.0 | 1.0 | 0.00 | 0.00 | 0.00 | 98 | 1010.5 |
| 20260906041031 | 75 | 90 | 0.0 | 1.0 | 0.00 | 0.00 | 0.00 | 98 | 1010.5 |
| 20260906040526 | 75 | 81 | 0.0 | 0.0 | 0.00 | 0.00 | 0.00 | 97 | 1010.4 |
| 20260906040022 | 76 | 81 | 0.0 | 1.0 | 0.00 | 0.27 | 0.27 | 96 | 1010.3 |
| 20260906035517 | 76 | 106 | 0.0 | 1.0 | 0.00 | 0.27 | 0.27 | 96 | 1010.4 |
| 20260906035013 | 76 | 90 | 0.0 | 0.0 | 0.00 | 0.27 | 0.27 | 96 | 1010.5 |
| 20260906034513 | 76 | 90 | 0.0 | 0.0 | 0.00 | 0.27 | 0.27 | 95 | 1010.5 |
| 20260906034008 | 76 | 90 | 0.0 | 0.0 | 0.00 | 0.27 | 0.27 | 95 | 1010.4 |
| 20260906033502 | 76 | 29 | 0.0 | 0.0 | 0.00 | 0.27 | 0.27 | 95 | 1010.4 |
| 20260906032958 | 77 | 29 | 0.0 | 0.0 | 0.00 | 0.27 | 0.27 | 96 | 1010.5 |
| 20260906032454 | 77 | 29 | 0.0 | 0.0 | 0.00 | 0.27 | 0.27 | 96 | 1010.5 |
| 20260906031949 | 77 | 29 | 0.0 | 0.0 | 0.00 | 0.27 | 0.27 | 94 | 1010.4 |
| 20260906031444 | 77 | 29 | 0.0 | 0.0 | 0.00 | 0.27 | 0.27 | 94 | 1010.4 |
| 20260906030939 | 77 | 120 | 0.0 | 0.0 | 0.00 | 0.27 | 0.27 | 94 | 1010.7 |
| 20260906030434 | 77 | 120 | 0.0 | 2.0 | 0.00 | 0.27 | 0.27 | 94 | 1010.4 |
| 20260906025928 | 78 | 106 | 0.0 | 2.0 | 0.00 | 0.27 | 0.27 | 95 | 1010.4 |
| 20260906025422 | 78 | 90 | 0.0 | 0.0 | 0.00 | 0.27 | 0.27 | 95 | 1010.3 |
| 20260906024921 | 78 | 29 | 0.0 | 2.0 | 0.00 | 0.27 | 0.27 | 95 | 1010.6 |
| 20260906024421 | 78 | 126 | 0.0 | 1.0 | 0.00 | 0.27 | 0.27 | 95 | 1010.2 |
| 20260906023916 | 78 | 90 | 0.0 | 0.0 | 0.00 | 0.27 | 0.27 | 95 | 1010.5 |
| 20260906023413 | 78 | 15 | 0.0 | 2.0 | 0.00 | 0.27 | 0.27 | 96 | 1010.5 |
| 20260906022912 | 78 | 106 | 0.0 | 2.0 | 0.00 | 0.27 | 0.27 | 97 | 1010.5 |
| 20260906022407 | 78 | 66 | 0.0 | 0.0 | 0.00 | 0.27 | 0.27 | 97 | 1010.0 |
| 20260906021903 | 78 | 66 | 0.0 | 1.0 | 0.00 | 0.27 | 0.27 | 97 | 1010.2 |
| 20260906021402 | 78 | 90 | 0.0 | 0.0 | 0.00 | 0.27 | 0.27 | 96 | 1010.1 |
| 20260906020857 | 78 | 99 | 0.0 | 0.0 | 0.00 | 0.27 | 0.27 | 96 | 1009.9 |
| 20260906020351 | 78 | 157 | 0.0 | 0.0 | 0.00 | 0.27 | 0.27 | 96 | 1009.7 |
| 20260906015846 | 78 | 174 | 0.0 | 2.0 | 0.00 | 0.27 | 0.27 | 96 | 1010.0 |
| 20260906015345 | 78 | 173 | 0.0 | 1.0 | 0.00 | 0.27 | 0.27 | 96 | 1009.8 |
| 20260906014844 | 78 | 180 | 1.0 | 1.0 | 0.00 | 0.27 | 0.27 | 96 | 1009.7 |
| 20260906014339 | 78 | 114 | 0.0 | 0.0 | 0.00 | 0.27 | 0.27 | 96 | 1009.8 |
| 20260906013836 | 78 | 106 | 0.0 | 1.0 | 0.00 | 0.27 | 0.27 | 96 | 1009.8 |
| 20260906013331 | 78 | 173 | 0.0 | 0.0 | 0.00 | 0.27 | 0.27 | 96 | 1009.7 |
| 20260906012826 | 79 | 173 | 0.0 | 0.0 | 0.00 | 0.27 | 0.27 | 96 | 1009.7 |
| 20260906012321 | 79 | 173 | 0.0 | 1.0 | 0.00 | 0.27 | 0.27 | 95 | 1009.7 |
| 20260906011815 | 78 | 29 | 0.0 | 0.0 | 0.00 | 0.27 | 0.27 | 95 | 1009.4 |
| 20260906011310 | 79 | 106 | 0.0 | 0.0 | 0.00 | 0.27 | 0.27 | 95 | 1009.5 |
| 20260906010806 | 79 | 106 | 0.0 | 0.0 | 0.00 | 0.27 | 0.27 | 94 | 1009.5 |
| 20260906010302 | 78 | 106 | 0.0 | 0.0 | 0.00 | 0.27 | 0.27 | 93 | 1009.2 |
| 20260906005757 | 79 | 106 | 0.0 | 0.0 | 0.00 | 0.27 | 0.27 | 92 | 1009.1 |
| 20260906005256 | 79 | 99 | 0.0 | 0.0 | 0.00 | 0.27 | 0.27 | 92 | 1009.1 |
| 20260906004755 | 79 | 98 | 0.0 | 1.0 | 0.00 | 0.27 | 0.27 | 91 | 1009.2 |
| 20260906004250 | 80 | 114 | 0.0 | 0.0 | 0.00 | 0.27 | 0.27 | 90 | 1009.2 |
| 20260906003750 | 80 | 117 | 0.0 | 2.0 | 0.00 | 0.27 | 0.27 | 90 | 1009.2 |
| 20260906003246 | 81 | 188 | 0.0 | 0.0 | 0.00 | 0.27 | 0.27 | 89 | 1009.2 |
| 20260906002740 | 82 | 188 | 0.0 | 0.0 | 0.00 | 0.27 | 0.27 | 88 | 1008.9 |
| 20260906002235 | 82 | 188 | 0.0 | 0.0 | 0.00 | 0.27 | 0.27 | 87 | 1009.5 |
| 20260906001730 | 82 | 180 | 0.0 | 1.0 | 0.00 | 0.27 | 0.27 | 87 | 1009.1 |
| 20260906001225 | 83 | 165 | 0.0 | 0.0 | 0.00 | 0.27 | 0.27 | 84 | 1009.2 |
| 20260906000721 | 83 | 180 | 0.0 | 2.0 | 0.00 | 0.27 | 0.27 | 83 | 1009.0 |
| 20260906000215 | 84 | 180 | 1.0 | 2.0 | 0.00 | 0.27 | 0.27 | 81 | 1009.4 |
| 20260905235716 | 84 | 120 | 0.0 | 0.0 | 0.00 | 0.27 | 0.27 | 81 | 1009.6 |
| 20260905235210 | 84 | 165 | 0.0 | 1.0 | 0.00 | 0.27 | 0.27 | 81 | 1009.4 |
| 20260905234706 | 85 | 172 | 0.0 | 0.0 | 0.00 | 0.27 | 0.27 | 82 | 1009.6 |
| 20260905234201 | 85 | 172 | 0.0 | 0.0 | 0.00 | 0.27 | 0.27 | 79 | 1009.7 |
| 20260905233656 | 86 | 172 | 0.0 | 1.0 | 0.00 | 0.27 | 0.27 | 79 | 1009.8 |
| 20260905233155 | 86 | 180 | 0.0 | 0.0 | 0.00 | 0.27 | 0.27 | 78 | 1009.7 |
| 20260905232651 | 87 | 172 | 0.0 | 0.0 | 0.00 | 0.27 | 0.27 | 76 | 1009.8 |
| 20260905232146 | 87 | 172 | 0.0 | 0.0 | 0.00 | 0.27 | 0.27 | 76 | 1009.9 |
| 20260905231641 | 87 | 172 | 0.0 | 0.0 | 0.00 | 0.27 | 0.27 | 74 | 1009.7 |
| 20260905231137 | 87 | 172 | 0.0 | 0.0 | 0.00 | 0.27 | 0.27 | 74 | 1009.8 |
| 20260905230633 | 88 | 172 | 0.0 | 0.0 | 0.00 | 0.27 | 0.27 | 74 | 1009.5 |
| 20260905230131 | 88 | 172 | 0.0 | 0.0 | 0.00 | 0.27 | 0.27 | 72 | 1009.7 |
| 20260905225625 | 89 | 172 | 0.0 | 1.0 | 0.00 | 0.27 | 0.27 | 70 | 1009.4 |
| 20260905225120 | 89 | 180 | 0.0 | 0.0 | 0.00 | 0.27 | 0.27 | 69 | 1009.4 |
| 20260905224619 | 90 | 180 | 0.0 | 0.0 | 0.00 | 0.27 | 0.27 | 68 | 1009.5 |
| 20260905224119 | 90 | 195 | 0.0 | 0.0 | 0.00 | 0.27 | 0.27 | 69 | 1009.3 |
| 20260905223616 | 90 | 195 | 0.0 | 0.0 | 0.00 | 0.27 | 0.27 | 68 | 1009.4 |
| 20260905223113 | 90 | 195 | 0.0 | 0.0 | 0.00 | 0.27 | 0.27 | 66 | 1009.3 |
| 20260905222613 | 91 | 195 | 0.0 | 0.0 | 0.00 | 0.27 | 0.27 | 67 | 1009.0 |
| 20260905222108 | 91 | 195 | 0.0 | 0.0 | 0.00 | 0.27 | 0.27 | 65 | 1009.1 |
| 20260905221604 | 91 | 195 | 0.0 | 0.0 | 0.00 | 0.27 | 0.27 | 65 | 1009.2 |
| 20260905221100 | 90 | 195 | 0.0 | 0.0 | 0.00 | 0.27 | 0.27 | 68 | 1009.5 |
| 20260905220555 | 91 | 195 | 0.0 | 0.0 | 0.00 | 0.27 | 0.27 | 67 | 1009.4 |
| 20260905220051 | 91 | 195 | 0.0 | 0.0 | 0.00 | 0.27 | 0.27 | 67 | 1009.5 |
| 20260905215550 | 91 | 180 | 0.0 | 2.0 | 0.00 | 0.27 | 0.27 | 64 | 1009.4 |
| 20260905215047 | 91 | 180 | 3.0 | 3.0 | 0.00 | 0.27 | 0.27 | 62 | 1009.2 |
| 20260905214543 | 91 | 209 | 0.0 | 3.0 | 0.00 | 0.27 | 0.27 | 63 | 1009.2 |
| 20260905214037 | 91 | 203 | 0.0 | 2.0 | 0.00 | 0.27 | 0.27 | 64 | 1009.4 |
| 20260905213532 | 91 | 196 | 0.0 | 2.0 | 0.00 | 0.27 | 0.27 | 64 | 1009.5 |
| 20260905213028 | 91 | 180 | 0.0 | 2.0 | 0.00 | 0.27 | 0.27 | 62 | 1009.2 |
| 20260905212522 | 91 | 190 | 2.0 | 3.0 | 0.00 | 0.27 | 0.27 | 63 | 1009.3 |
| 20260905212022 | 91 | 180 | 1.0 | 3.0 | 0.00 | 0.27 | 0.27 | 63 | 1009.5 |
| 20260905211517 | 91 | 98 | 0.0 | 2.0 | 0.00 | 0.27 | 0.27 | 65 | 1009.5 |
| 20260905211013 | 91 | 195 | 0.0 | 2.0 | 0.00 | 0.27 | 0.27 | 62 | 1009.3 |
| 20260905210509 | 91 | 185 | 0.0 | 2.0 | 0.00 | 0.27 | 0.27 | 61 | 1009.5 |
| 20260905210009 | 91 | 187 | 0.0 | 1.0 | 0.00 | 0.27 | 0.27 | 64 | 1009.5 |
| 20260905205503 | 90 | 29 | 0.0 | 0.0 | 0.00 | 0.27 | 0.27 | 63 | 1009.5 |
| 20260905205002 | 91 | 32 | 2.0 | 2.0 | 0.00 | 0.27 | 0.27 | 64 | 1009.7 |
| 20260905204457 | 91 | 340 | 0.0 | 2.0 | 0.00 | 0.27 | 0.27 | 61 | 1009.9 |
| 20260905203956 | 92 | 261 | 1.0 | 3.0 | 0.00 | 0.27 | 0.27 | 59 | 1009.7 |
| 20260905203452 | 91 | 187 | 4.0 | 4.0 | 0.00 | 0.27 | 0.27 | 62 | 1009.8 |
| 20260905202947 | 91 | 29 | 0.0 | 2.0 | 0.00 | 0.27 | 0.27 | 63 | 1009.7 |
| 20260905202442 | 93 | 15 | 0.0 | 1.0 | 0.00 | 0.27 | 0.27 | 60 | 1010.0 |
| 20260905201938 | 91 | 23 | 0.0 | 1.0 | 0.00 | 0.27 | 0.27 | 61 | 1009.9 |
| 20260905201433 | 92 | 26 | 1.0 | 2.0 | 0.00 | 0.27 | 0.27 | 61 | 1010.0 |
| 20260905200927 | 93 | 262 | 1.0 | 3.0 | 0.00 | 0.27 | 0.27 | 60 | 1010.1 |
| 20260905200423 | 93 | 206 | 1.0 | 3.0 | 0.00 | 0.27 | 0.27 | 58 | 1010.2 |
| 20260905195921 | 93 | 168 | 2.0 | 3.0 | 0.00 | 0.27 | 0.27 | 56 | 1010.2 |
| 20260905195417 | 93 | 270 | 1.0 | 2.0 | 0.00 | 0.27 | 0.27 | 58 | 1010.4 |
| 20260905194912 | 93 | 114 | 0.0 | 4.0 | 0.00 | 0.27 | 0.27 | 58 | 1010.2 |
| 20260905194411 | 93 | 180 | 0.0 | 2.0 | 0.00 | 0.27 | 0.27 | 58 | 1010.7 |
| 20260905193906 | 94 | 192 | 0.0 | 3.0 | 0.00 | 0.27 | 0.27 | 55 | 1010.4 |
| 20260905193401 | 94 | 180 | 0.0 | 3.0 | 0.00 | 0.27 | 0.27 | 58 | 1010.7 |
| 20260905192856 | 93 | 270 | 0.0 | 1.0 | 0.00 | 0.27 | 0.27 | 57 | 1010.6 |
| 20260905192351 | 93 | 353 | 1.0 | 3.0 | 0.00 | 0.27 | 0.27 | 58 | 1010.8 |
| 20260905191851 | 94 | 286 | 0.0 | 2.0 | 0.00 | 0.27 | 0.27 | 59 | 1010.8 |
| 20260905191350 | 92 | 8 | 0.0 | 4.0 | 0.00 | 0.27 | 0.27 | 58 | 1010.7 |
| 20260905190849 | 93 | 346 | 2.0 | 2.0 | 0.00 | 0.27 | 0.27 | 61 | 1011.1 |
| 20260905190343 | 94 | 139 | 2.0 | 3.0 | 0.00 | 0.27 | 0.27 | 59 | 1010.8 |
| 20260905185841 | 94 | 245 | 0.0 | 2.0 | 0.00 | 0.27 | 0.27 | 57 | 1010.9 |
| 20260905185337 | 94 | 254 | 2.0 | 3.0 | 0.00 | 0.27 | 0.27 | 57 | 1011.1 |
| 20260905184830 | 94 | 192 | 1.0 | 5.0 | 0.00 | 0.27 | 0.27 | 55 | 1011.4 |
| 20260905184330 | 94 | 23 | 0.0 | 1.0 | 0.00 | 0.27 | 0.27 | 57 | 1011.1 |
| 20260905183828 | 94 | 180 | 4.0 | 4.0 | 0.00 | 0.27 | 0.27 | 54 | 1011.4 |
| 20260905183324 | 93 | 180 | 0.0 | 3.0 | 0.00 | 0.27 | 0.27 | 56 | 1011.3 |
| 20260905182824 | 93 | 45 | 2.0 | 2.0 | 0.00 | 0.27 | 0.27 | 57 | 1011.5 |
| 20260905182317 | 93 | 160 | 0.0 | 3.0 | 0.00 | 0.27 | 0.27 | 58 | 1011.7 |
| 20260905181813 | 92 | 331 | 0.0 | 3.0 | 0.00 | 0.27 | 0.27 | 57 | 1011.7 |
| 20260905181307 | 92 | 17 | 2.0 | 4.0 | 0.00 | 0.27 | 0.27 | 59 | 1011.4 |
| 20260905180806 | 92 | 191 | 3.0 | 4.0 | 0.00 | 0.27 | 0.27 | 56 | 1011.6 |
| 20260905180301 | 92 | 203 | 3.0 | 6.0 | 0.00 | 0.27 | 0.27 | 56 | 1011.5 |
| 20260905175756 | 91 | 105 | 0.0 | 5.0 | 0.00 | 0.27 | 0.27 | 58 | 1011.9 |
| 20260905175251 | 91 | 82 | 0.0 | 4.0 | 0.00 | 0.27 | 0.27 | 57 | 1011.8 |
| 20260905174746 | 90 | 192 | 0.0 | 4.0 | 0.00 | 0.27 | 0.27 | 62 | 1011.9 |
| 20260905174242 | 90 | 270 | 0.0 | 3.0 | 0.00 | 0.27 | 0.27 | 58 | 1012.0 |
| 20260905173737 | 89 | 75 | 1.0 | 5.0 | 0.00 | 0.27 | 0.27 | 58 | 1012.2 |
| 20260905173233 | 91 | 213 | 2.0 | 4.0 | 0.00 | 0.27 | 0.27 | 61 | 1011.8 |
| 20260905172727 | 90 | 201 | 2.0 | 4.0 | 0.00 | 0.27 | 0.27 | 60 | 1011.9 |
| 20260905172227 | 89 | 180 | 2.0 | 3.0 | 0.00 | 0.27 | 0.27 | 59 | 1012.2 |
| 20260905171723 | 89 | 186 | 3.0 | 6.0 | 0.00 | 0.27 | 0.27 | 60 | 1012.3 |
| 20260905171219 | 89 | 15 | 1.0 | 3.0 | 0.00 | 0.27 | 0.27 | 59 | 1012.1 |
| 20260905170715 | 89 | 192 | 2.0 | 5.0 | 0.00 | 0.27 | 0.27 | 59 | 1012.4 |
| 20260905170210 | 89 | 315 | 2.0 | 4.0 | 0.00 | 0.27 | 0.27 | 59 | 1012.2 |
| 20260905165709 | 88 | 112 | 0.0 | 5.0 | 0.00 | 0.27 | 0.27 | 59 | 1012.3 |
| 20260905165205 | 87 | 120 | 1.0 | 5.0 | 0.00 | 0.27 | 0.27 | 61 | 1012.5 |
| 20260905164700 | 88 | 204 | 0.0 | 6.0 | 0.00 | 0.27 | 0.27 | 60 | 1012.6 |
| 20260905164159 | 87 | 207 | 4.0 | 6.0 | 0.00 | 0.27 | 0.27 | 60 | 1012.7 |
| 20260905163655 | 86 | 222 | 3.0 | 6.0 | 0.00 | 0.27 | 0.27 | 62 | 1012.9 |
| 20260905163152 | 88 | 173 | 0.0 | 3.0 | 0.00 | 0.27 | 0.27 | 61 | 1013.1 |
| 20260905162648 | 88 | 90 | 1.0 | 2.0 | 0.00 | 0.27 | 0.27 | 65 | 1013.1 |
| 20260905162146 | 86 | 204 | 2.0 | 6.0 | 0.00 | 0.27 | 0.27 | 60 | 1013.1 |
| 20260905161641 | 86 | 299 | 2.0 | 7.0 | 0.00 | 0.27 | 0.27 | 61 | 1012.9 |
| 20260905161139 | 86 | 221 | 2.0 | 3.0 | 0.00 | 0.27 | 0.27 | 65 | 1012.9 |
| 20260905160639 | 86 | 172 | 2.0 | 8.0 | 0.00 | 0.27 | 0.27 | 64 | 1012.7 |
| 20260905160133 | 86 | 187 | 1.0 | 4.0 | 0.00 | 0.27 | 0.27 | 63 | 1012.8 |
| 20260905155633 | 85 | 221 | 2.0 | 4.0 | 0.00 | 0.27 | 0.27 | 64 | 1012.9 |
| 20260905155131 | 86 | 346 | 0.0 | 3.0 | 0.00 | 0.27 | 0.27 | 65 | 1012.8 |
| 20260905154626 | 84 | 101 | 2.0 | 3.0 | 0.00 | 0.27 | 0.27 | 75 | 1012.8 |
| 20260905154122 | 86 | 197 | 2.0 | 2.0 | 0.00 | 0.27 | 0.27 | 68 | 1012.6 |
| 20260905153617 | 85 | 150 | 0.0 | 6.0 | 0.00 | 0.27 | 0.27 | 68 | 1012.6 |
| 20260905153112 | 85 | 229 | 3.0 | 5.0 | 0.00 | 0.27 | 0.27 | 66 | 1012.6 |
| 20260905152608 | 87 | 194 | 3.0 | 3.0 | 0.00 | 0.27 | 0.27 | 66 | 1012.8 |
| 20260905152102 | 85 | 60 | 0.0 | 2.0 | 0.00 | 0.27 | 0.27 | 69 | 1012.8 |
| 20260905151557 | 84 | 200 | 3.0 | 4.0 | 0.00 | 0.27 | 0.27 | 68 | 1012.5 |
| 20260905151052 | 83 | 270 | 0.0 | 5.0 | 0.00 | 0.27 | 0.27 | 73 | 1012.9 |
| 20260905150548 | 83 | 192 | 2.0 | 2.0 | 0.00 | 0.27 | 0.27 | 74 | 1012.9 |
| 20260905150046 | 82 | 198 | 2.0 | 4.0 | 0.00 | 0.27 | 0.27 | 72 | 1012.7 |
| 20260905145539 | 82 | 262 | 1.0 | 5.0 | 0.00 | 0.27 | 0.27 | 73 | 1013.0 |
| 20260905145038 | 82 | 239 | 2.0 | 7.0 | 0.00 | 0.27 | 0.27 | 73 | 1013.1 |
| 20260905144533 | 82 | 210 | 3.0 | 4.0 | 0.00 | 0.27 | 0.27 | 71 | 1013.2 |
| 20260905144032 | 82 | 200 | 1.0 | 5.0 | 0.00 | 0.27 | 0.27 | 74 | 1013.1 |
| 20260905143532 | 81 | 8 | 0.0 | 3.0 | 0.00 | 0.27 | 0.27 | 76 | 1013.2 |
| 20260905143027 | 80 | 198 | 5.0 | 5.0 | 0.00 | 0.27 | 0.27 | 78 | 1013.0 |
| 20260905142526 | 80 | 126 | 1.0 | 6.0 | 0.00 | 0.27 | 0.27 | 79 | 1012.9 |
| 20260905142021 | 80 | 168 | 2.0 | 3.0 | 0.00 | 0.27 | 0.27 | 77 | 1013.3 |
| 20260905141515 | 79 | 216 | 3.0 | 6.0 | 0.00 | 0.27 | 0.27 | 76 | 1013.2 |
| 20260905141012 | 79 | 157 | 0.0 | 3.0 | 0.00 | 0.27 | 0.27 | 78 | 1013.6 |
| 20260905140507 | 79 | 192 | 1.0 | 5.0 | 0.00 | 0.27 | 0.27 | 79 | 1013.5 |
| 20260905140005 | 79 | 195 | 0.0 | 4.0 | 0.00 | 0.27 | 0.27 | 79 | 1013.6 |
| 20260905135501 | 78 | 212 | 0.0 | 2.0 | 0.00 | 0.27 | 0.27 | 81 | 1013.5 |
| 20260905134956 | 78 | 120 | 0.0 | 4.0 | 0.00 | 0.27 | 0.27 | 84 | 1013.7 |
| 20260905134455 | 78 | 190 | 2.0 | 4.0 | 0.00 | 0.27 | 0.27 | 81 | 1013.6 |
| 20260905133954 | 77 | 198 | 0.0 | 2.0 | 0.00 | 0.27 | 0.27 | 83 | 1013.8 |
| 20260905133450 | 76 | 173 | 0.0 | 3.0 | 0.00 | 0.27 | 0.27 | 86 | 1013.8 |
| 20260905132944 | 74 | 120 | 0.0 | 3.0 | 0.00 | 0.27 | 0.27 | 92 | 1013.7 |
| 20260905132439 | 72 | 111 | 0.0 | 2.0 | 0.00 | 0.27 | 0.27 | 96 | 1013.8 |
| 20260905131933 | 71 | 79 | 2.0 | 2.0 | 0.00 | 0.27 | 0.27 | 98 | 1013.8 |
| 20260905131430 | 70 | 33 | 2.0 | 2.0 | 0.00 | 0.27 | 0.27 | 99 | 1013.6 |
| 20260905130924 | 70 | 8 | 2.0 | 3.0 | 0.00 | 0.27 | 0.27 | 99 | 1013.6 |
| 20260905130423 | 70 | 52 | 2.0 | 5.0 | 0.00 | 0.27 | 0.27 | 99 | 1013.7 |
| 20260905125918 | 70 | 52 | 2.0 | 3.0 | 0.00 | 0.27 | 0.27 | 99 | 1013.8 |
| 20260905125413 | 70 | 237 | 0.0 | 3.0 | 0.00 | 0.27 | 0.27 | 99 | 1013.9 |
| 20260905124908 | 70 | 109 | 0.0 | 3.0 | 0.00 | 0.27 | 0.27 | 99 | 1014.3 |
| 20260905124405 | 70 | 98 | 0.0 | 3.0 | 0.00 | 0.27 | 0.27 | 99 | 1014.0 |
| 20260905123904 | 70 | 66 | 1.0 | 5.0 | 0.00 | 0.27 | 0.27 | 99 | 1013.8 |
| 20260905123401 | 70 | 75 | 0.0 | 4.0 | 0.00 | 0.27 | 0.27 | 99 | 1013.9 |
| 20260905122856 | 70 | 41 | 2.0 | 4.0 | 0.00 | 0.27 | 0.27 | 99 | 1014.0 |
| 20260905122355 | 71 | 75 | 0.0 | 3.0 | 0.00 | 0.27 | 0.27 | 99 | 1014.1 |
| 20260905121851 | 71 | 74 | 0.0 | 3.0 | 0.00 | 0.27 | 0.27 | 99 | 1014.4 |
| 20260905121347 | 71 | 74 | 1.0 | 3.0 | 0.00 | 0.27 | 0.27 | 99 | 1014.2 |
| 20260905120846 | 71 | 145 | 1.0 | 3.0 | 0.00 | 0.27 | 0.27 | 99 | 1014.3 |
| 20260905120340 | 71 | 74 | 2.0 | 2.0 | 0.00 | 0.27 | 0.27 | 99 | 1014.1 |
| 20260905115836 | 72 | 90 | 0.0 | 4.0 | 0.00 | 0.27 | 0.27 | 99 | 1014.1 |
| 20260905115335 | 72 | 126 | 1.0 | 7.0 | 0.00 | 0.27 | 0.27 | 99 | 1014.0 |
| 20260905114834 | 72 | 157 | 0.0 | 2.0 | 0.00 | 0.27 | 0.27 | 99 | 1012.4 |
| 20260905114334 | 72 | 164 | 2.0 | 2.0 | 0.00 | 0.27 | 0.27 | 99 | 1012.2 |
| 20260905113828 | 72 | 106 | 0.0 | 1.0 | 0.00 | 0.27 | 0.27 | 99 | 1012.4 |
| 20260905113324 | 72 | 135 | 2.0 | 2.0 | 0.00 | 0.27 | 0.27 | 99 | 1012.2 |
| 20260905112819 | 72 | 154 | 1.0 | 2.0 | 0.00 | 0.27 | 0.27 | 99 | 1012.3 |
| 20260905112313 | 72 | 120 | 1.0 | 2.0 | 0.00 | 0.27 | 0.27 | 99 | 1012.3 |
| 20260905111808 | 71 | 106 | 0.0 | 1.0 | 0.00 | 0.27 | 0.27 | 99 | 1012.2 |
| 20260905111303 | 71 | 103 | 0.0 | 2.0 | 0.02 | 0.27 | 0.27 | 99 | 1012.1 |
| 20260905110802 | 71 | 23 | 0.0 | 3.0 | 0.24 | 0.27 | 0.27 | 99 | 1012.0 |
| 20260905110256 | 71 | 214 | 5.0 | 8.0 | 0.35 | 0.27 | 0.27 | 99 | 1012.2 |
| 20260905105752 | 72 | 170 | 2.0 | 5.0 | 0.07 | 0.22 | 0.22 | 99 | 1012.5 |
| 20260905105251 | 72 | 183 | 3.0 | 3.0 | 0.02 | 0.21 | 0.21 | 99 | 1012.4 |
| 20260905104745 | 72 | 166 | 1.0 | 3.0 | 0.05 | 0.21 | 0.21 | 99 | 1012.1 |
| 20260905104241 | 71 | 331 | 0.0 | 3.0 | 0.31 | 0.20 | 0.20 | 99 | 1011.9 |
| 20260905103736 | 72 | 45 | 3.0 | 3.0 | 1.21 | 0.20 | 0.20 | 96 | 1011.4 |
| 20260905103232 | 76 | 194 | 5.0 | 5.0 | 0.52 | 0.09 | 0.09 | 97 | 1013.1 |
| 20260905102727 | 76 | 257 | 2.0 | 2.0 | 0.00 | 0.00 | 0.00 | 94 | 1012.5 |
| 20260905102224 | 76 | 28 | 2.0 | 3.0 | 0.00 | 0.00 | 0.00 | 95 | 1012.1 |
| 20260905101723 | 76 | 29 | 0.0 | 3.0 | 0.00 | 0.00 | 0.00 | 94 | 1012.3 |
| 20260905101221 | 76 | 4 | 2.0 | 3.0 | 0.00 | 0.00 | 0.00 | 93 | 1011.9 |
| 20260905100718 | 76 | 15 | 0.0 | 1.0 | 0.00 | 0.00 | 0.00 | 96 | 1012.0 |
| 20260905100213 | 76 | 66 | 0.0 | 1.0 | 0.00 | 0.00 | 0.00 | 97 | 1011.7 |
| 20260905095712 | 76 | 162 | 0.0 | 2.0 | 0.00 | 0.00 | 0.00 | 97 | 1011.9 |
| 20260905095207 | 76 | 176 | 0.0 | 3.0 | 0.00 | 0.00 | 0.00 | 97 | 1012.1 |
| 20260905094706 | 76 | 188 | 2.0 | 4.0 | 0.00 | 0.00 | 0.00 | 97 | 1012.0 |
| 20260905094201 | 75 | 180 | 4.0 | 4.0 | 0.00 | 0.00 | 0.00 | 98 | 1012.1 |
| 20260905093655 | 76 | 23 | 2.0 | 2.0 | 0.00 | 0.00 | 0.00 | 98 | 1011.5 |